Location: Dehesa de la Cepeda
(40.6574°N, 4.3013°W)
Time: 10:11:46
(UTC+00:00)

Vanguard 2 Rocket - Pass Details

Date: 23 October 2021
Orbit: 555 x 3324 km, 32.9° (Epoch: 08 December)

Event Time Altitude Azimuth Distance (km) Brightness Sun altitude
Exits shadow 03:28:01 - 194° (SSW) 5,933 10.7 -36.2°
Reaches altitude 10° 03:29:20 10° 191° (SSW) 5,675 10.7 -36.0°
Maximum altitude 03:39:40 20° 152° (SSE) 4,063 10.2 -34.1°
Drops below altitude 10° 03:47:20 10° 110° (ESE) 4,098 10.8 -32.7°
Sets 03:51:09 0° 94° (E) 4,655 11.5 -32.0°
